Location: Murphys Corner
(39.1062°N, 77.8244°W)
Time: 19:36:42
(UTC+00:00)

Envisat - Pass Details

Date: 09 February 2023
Orbit: 763 x 765 km, 98.2° (Epoch: 24 March)

Event Time Altitude Azimuth Distance (km) Brightness Sun altitude
Rises 08:40:49 0° 21° (NNE) 3,238 6.6 -40.9°
Reaches altitude 10° 08:43:17 10° 29° (NNE) 2,307 5.9 -40.4°
Enters shadow 08:43:19 10° 29° (NNE) 2,291 5.8 -40.4°
